Wind_Speed
3 5 3 4 5 5 3 3 6 7 4 5 4 2 6 3 2 4 7 2 4 5 2 1 3 10 19 24 23 25 19 24 25 25 19 10 13 11 9 13 10 15 14 18
5 2 9 8 6 5 4 6 9 7 5 5 1 3 6 6 4 4 5 5 6 7 6 3 10 15 19 23 23 24 15 17 17 22 16 14 14 13 16 17 14 20 19 25
5 7 7 5 5 2 2 3 5 8 3 5 5 5 4 4 3 7 5 5 5 7 4 1 5 14 16 23 24 29 14 10 16 18 14 15 16 17 13 10 14 17 16 11
5 4 8 6 7 6 3 7 7 6 2 4 4 4 4 3 5 5 6 4 7 6 3 4 5 11 14 17 20 19 14 8 12 16 19 17 8 8 4 10 14 12 9 9
12 5 7 6 13 3 10 2 3 2 3 3 1 3 5 2 3 0 4 6 5 3 5 6 7 10 10 11 12 10 11 10 9 9 10 9 8 6 9 11 10 8 8 8
10 2 7 10 9 6 6 1 4 3 4 1 4 5 5 5 5 2 1 6 7 4 6 6 9 15 14 13 13 13 12 7 6 7 6 5 4 8 10 9 6 6 8 9
4 4 4 4 3 3 5 6 3 3 2 6 1 1 8 4 4 6 8 7 5 6 8 7 8 13 15 15 12 9 7 4 6 8 4 4 6 4 2 1 4 6 11 15
1 6 2 0 3 6 3 7 5 7 4 5 1 5 6 3 4 6 10 8 6 9 7 6 10 15 12 10 10 10 10 9 7 6 3 3 4 3 2 5 10 12 14 19
2 4 3 3 0 3 2 3 1 6 4 2 4 5 7 7 8 6 7 8 8 8 7 8 11 14 15 14 13 13 10 9 8 9 10 9 6 1 6 7 8 12 15 20
4 1 2 3 3 4 4 4 3 3 3 4 3 4 6 5 9 8 8 8 6 5 5 6 8 12 14 15 13 9 7 11 15 14 9 4 1 4 6 10 13 17 19 22
3 3 5 1 1 4 2 2 5 4 3 4 2 6 6 9 9 11 9 9 10 8 8 7 10 12 13 11 8 9 15 17 15 9 4 3 3 5 10 15 15 15 20 22
3 4 4 8 2 5 3 4 4 4 3 2 3 7 3 7 6 9 10 11 8 8 8 6 10 12 14 14 14 19 16 14 10 6 3 3 5 10 14 15 12 16 19 18
3 1 3 9 6 1 4 4 3 5 3 6 4 6 2 3 2 6 9 8 9 9 6 5 5 10 14 15 20 19 16 14 9 3 4 6 10 13 16 10 12 16 15 17
5 4 8 7 7 3 4 6 6 5 3 4 6 6 5 7 6 7 6 7 8 7 7 6 6 10 16 21 21 19 16 13 7 8 8 10 13 14 9 10 13 12 14 15
2 5 5 5 7 5 5 7 7 8 6 5 5 7 7 11 8 8 8 7 7 7 7 8 8 9 17 18 18 17 15 13 13 11 10 12 13 11 8 12 11 12 14 16
4 3 3 4 4 4 6 6 10 10 9 6 5 9 5 5 5 6 9 9 8 7 8 8 7 10 15 18 19 17 16 16 15 13 12 12 11 10 11 13 10 12 13 16
3 3 4 5 4 7 3 5 5 2 2 4 3 2 2 4 7 8 8 9 10 8 7 7 7 13 18 20 19 19 19 16 16 15 12 11 11 13 13 13 13 12 14 16
1 2 2 4 5 3 1 5 5 2 3 3 4 3 2 3 4 6 3 5 6 6 6 6 13 14 16 18 20 21 18 18 18 16 15 13 14 16 14 14 14 15 15 18
1 3 1 2 3 5 1 5 5 6 5 10 3 5 3 5 4 4 2 4 6 7 11 15 18 19 17 18 21 23 20 21 22 22 19 16 16 20 18 17 17 15 16 19
5 2 1 1 2 3 4 1 2 3 8 11 3 5 5 6 3 4 3 6 7 14 18 18 18 17 17 21 22 22 25 24 26 26 22 19 17 21 22 19 18 18 17 20
3 3 1 2 1 6 4 5 4 4 5 4 2 4 5 5 5 4 6 4 12 19 19 17 17 19 21 22 21 25 28 28 31 29 25 21 20 21 23 21 19 19 19 20
1 1 2 1 2 3 3 3 0 4 1 1 2 2 4 4 4 4 7 6 8 14 18 19 20 24 26 26 23 27 28 35 33 30 26 25 23 22 24 22 21 19 18 20
1 4 3 5 4 3 5 3 4 3 2 1 4 4 5 5 5 6 7 9 13 20 26 24 23 28 30 29 26 28 35 35 34 30 28 28 26 25 24 22 21 19 18 19
2 3 3 0 2 4 6 5 4 4 1 2 4 5 6 5 6 7 6 7 10 20 23 15 18 23 25 37 33 30 35 39 34 30 31 30 28 27 26 25 22 21 19 21
3 2 2 3 2 1 5 6 6 12 10 8 7 4 4 5 8 5 7 6 10 4 14 16 14 17 19 19 21 22 25 21 25 31 37 35 30 30 29 30 27 25 23 22
3 2 1 2 6 4 4 4 8 11 6 9 11 12 14 13 10 9 9 15 17 20 17 22 23 26 22 25 26 25 31 32 27 26 26 29 32 34 32 32 33 29 27 23
Wind_Direction
33 71 162 212 200 216 216 207 256 262 315 78 10 347 314 332 305 50 138 131 343 304 315 164 214 154 162 164 170 176 203 221 220 211 222 239 252 255 252 262 264 287 290 312
28 179 221 215 229 232 210 297 292 289 61 81 234 306 304 328 321 348 355 325 277 299 339 26 130 140 154 169 177 188 203 216 217 215 227 235 237 253 273 271 304 305 309 304
171 222 217 199 272 340 238 219 261 236 5 37 112 327 325 330 320 292 278 216 241 233 269 295 112 144 167 179 188 194 210 248 231 233 240 227 242 253 274 327 353 350 342 324
223 251 215 222 261 171 258 216 241 260 173 253 168 259 278 241 307 312 355 30 228 213 144 153 135 149 164 179 188 205 239 244 230 227 218 237 246 277 317 338 334 332 340 335
241 206 209 218 228 188 243 30 258 284 191 119 189 108 255 275 147 119 54 45 18 188 159 149 142 132 160 175 188 202 197 202 192 211 228 225 296 291 310 325 321 327 334 335
237 220 165 223 253 204 226 125 64 69 91 2 232 148 267 195 162 170 125 88 99 96 118 131 121 132 140 162 175 169 168 200 234 217 196 228 313 309 294 315 322 332 340 344
324 259 255 161 230 38 68 52 342 327 336 227 285 29 235 206 156 191 168 124 110 134 137 140 128 142 154 161 167 188 205 185 153 161 180 257 284 306 228 308 338 334 333 333
178 333 350 293 187 201 175 159 163 227 209 241 66 240 255 179 97 98 120 121 140 148 142 156 169 169 165 161 171 177 174 162 175 195 207 200 160 133 65 340 332 335 335 328
145 269 307 78 293 91 238 242 189 100 357 37 237 294 313 87 93 114 121 115 148 160 158 174 167 162 153 156 165 166 167 164 174 165 151 142 142 54 325 329 326 312 312 311
191 230 6 330 40 71 152 152 73 14 172 253 290 280 237 180 170 159 155 151 185 206 184 186 172 160 154 165 172 176 192 184 157 146 149 156 253 317 330 316 313 315 313 316
135 130 269 23 118 203 10 323 56 126 144 195 275 259 212 197 172 170 176 181 187 191 202 197 193 175 171 174 176 181 158 156 160 165 179 239 302 304 302 302 311 313 320 325
33 133 222 229 184 158 175 204 160 135 256 232 175 270 265 183 181 171 175 186 196 204 199 198 198 187 187 186 174 162 163 174 181 184 219 246 283 294 298 304 307 318 326 326
179 282 339 334 354 40 203 182 161 117 133 201 163 266 347 153 161 174 166 183 195 210 187 196 195 209 216 206 181 177 182 189 193 232 244 268 282 296 302 292 306 318 319 326
103 177 190 225 217 176 238 214 189 157 150 188 221 271 267 202 192 175 169 197 201 205 201 187 199 195 184 177 178 186 194 203 218 232 246 274 291 300 281 289 304 310 319 325
124 231 199 253 254 238 238 242 223 203 217 182 247 218 242 205 186 190 183 178 193 214 210 208 194 184 183 181 187 197 210 216 227 248 269 294 300 289 264 290 297 309 313 323
7 293 342 269 191 294 266 259 248 242 229 247 276 266 214 122 117 146 180 182 187 201 200 198 176 178 185 194 200 209 219 228 237 255 276 300 289 245 259 285 297 307 310 318
23 4 7 272 328 296 224 347 17 344 351 196 183 256 91 118 168 187 190 189 193 185 177 173 178 189 195 207 212 216 224 235 242 258 272 293 258 233 260 281 282 294 302 311
103 112 114 285 324 252 292 5 49 322 332 13 74 14 123 167 55 27 7 204 168 138 145 178 193 206 217 223 224 229 232 237 243 258 266 274 245 242 259 274 280 287 299 301
153 119 62 20 299 298 282 7 29 34 326 330 281 98 61 75 59 3 68 113 141 160 178 186 196 209 217 220 231 234 237 241 245 254 262 265 254 246 254 266 278 294 294 302
98 73 149 113 351 340 259 30 91 87 5 338 80 113 129 41 36 278 230 154 166 181 181 188 203 214 222 236 237 235 241 244 248 254 262 263 263 251 250 262 275 290 294 297
24 357 348 114 179 259 267 149 179 91 221 292 65 130 144 182 209 241 158 218 190 185 195 207 209 214 229 246 240 242 247 248 254 260 262 263 265 259 250 260 272 286 291 292
191 118 276 30 263 348 68 83 95 226 295 111 50 71 122 169 168 180 197 211 208 215 221 226 222 231 244 248 242 248 250 259 260 265 265 265 266 262 251 256 268 279 286 285
334 188 196 166 242 257 284 265 269 183 131 100 125 166 171 165 199 196 212 213 220 230 236 239 237 246 253 260 256 253 260 262 264 265 265 264 266 261 254 252 261 270 281 281
264 179 235 314 296 309 311 292 323 53 1 158 163 184 187 218 233 243 239 229 229 239 246 279 298 273 278 283 276 268 278 271 269 267 267 265 260 259 253 251 258 262 269 277
204 8 288 269 331 315 32 37 43 31 5 11 38 21 358 320 301 292 285 268 269 326 327 296 339 330 327 343 13 9 355 329 300 291 279 268 259 258 256 254 256 258 262 266
157 201 106 315 326 76 326 326 55 55 26 48 46 35 34 41 17 7 26 39 56 54 41 50 44 43 30 29 25 15 10 9 358 318 292 281 273 262 253 256 261 258 260 263
Height
786 805 816 802 799 797 801 809 811 795 779 797 802 798 793 791 789 792 796 795 790 788 787 788 789 788 788 790 794 795 798 804 807 810 812 813 814 816 814 813 813 813 813 810
802 813 796 788 788 789 789 802 800 788 780 795 806 805 798 793 792 792 793 794 794 790 785 788 790 791 792 794 796 798 801 805 808 810 809 812 815 814 812 810 810 811 806 805
807 796 783 787 789 793 792 801 799 801 787 798 806 814 805 794 793 790 789 791 790 791 789 791 793 792 792 795 797 799 802 804 807 809 810 812 813 811 810 810 809 807 805 803
797 781 787 791 791 783 802 779 787 795 804 824 801 838 812 802 803 795 793 790 788 790 792 795 796 795 796 798 799 802 804 806 807 808 810 810 812 811 809 811 811 810 808 806
794 786 792 795 785 774 792 775 784 789 802 809 813 830 814 802 799 800 798 792 792 793 794 797 798 798 799 801 803 805 807 808 809 810 811 812 812 811 810 810 810 809 808 806
779 768 778 776 769 769 768 778 792 806 817 836 815 823 822 808 796 796 795 793 795 798 797 798 799 800 802 804 806 808 809 809 809 810 812 812 812 810 809 810 809 808 807 806
785 779 766 762 777 772 783 805 835 837 836 840 814 824 813 788 787 788 793 796 799 799 799 799 801 802 803 804 806 808 809 809 810 811 811 811 810 809 809 810 810 809 806 804
806 812 774 762 772 784 784 800 831 842 851 833 812 825 805 782 782 785 790 795 798 798 799 801 801 801 801 804 806 808 809 809 810 810 809 809 810 811 812 811 809 807 804 800
806 801 768 765 764 775 789 806 801 826 829 840 821 804 788 785 794 796 795 795 799 799 799 800 801 800 801 803 806 807 808 808 808 809 810 811 812 811 812 810 807 804 801 797
790 807 779 772 768 778 783 791 816 829 839 845 823 820 813 794 799 798 797 797 801 801 800 799 799 800 801 804 806 806 808 807 808 809 811 811 811 811 810 807 804 801 798 794
787 798 795 779 789 796 797 804 815 821 829 834 836 821 788 785 786 790 794 795 797 799 800 798 798 800 802 804 806 806 807 808 808 809 810 810 809 808 807 804 801 798 795 791
792 805 812 796 779 781 786 793 801 821 823 829 831 822 772 778 779 782 788 790 793 795 796 797 798 799 801 803 805 805 807 808 808 808 807 807 807 805 804 801 798 796 793 790
786 807 823 810 797 786 789 789 793 801 817 825 829 815 776 777 776 781 786 789 790 792 795 797 798 798 799 800 802 804 806 807 807 806 805 805 804 802 801 798 796 795 792 788
784 805 807 817 803 791 794 788 787 796 818 810 811 795 782 781 779 782 785 788 789 789 791 794 796 795 797 799 800 803 805 805 805 804 803 802 801 800 798 797 796 794 790 786
793 804 798 791 785 783 784 781 779 793 790 797 786 791 777 775 778 779 779 786 790 790 791 792 793 794 795 798 800 802 803 803 803 802 800 799 798 797 796 795 794 792 788 784
799 803 797 794 783 786 786 775 771 770 770 773 775 779 766 770 775 779 780 783 787 788 788 789 791 793 795 798 798 799 800 801 801 799 797 796 794 794 794 793 791 788 785 782
801 807 811 808 793 791 793 785 776 769 767 768 781 772 769 773 774 777 779 781 781 782 785 789 792 794 795 796 797 796 796 798 798 796 794 792 791 791 791 790 787 785 782 779
801 807 814 814 801 807 793 779 774 775 768 767 768 770 764 769 774 778 778 778 780 783 786 790 792 793 794 794 795 794 793 794 794 793 791 789 787 788 787 786 783 781 779 776
801 808 813 822 820 799 786 786 786 790 785 770 771 770 778 777 777 781 777 779 782 784 786 787 789 790 791 792 791 792 790 790 790 788 786 785 783 783 783 781 780 777 775 772
801 803 808 812 817 815 795 787 784 777 802 773 770 775 778 779 794 792 780 778 780 782 783 785 786 788 789 787 788 788 785 785 785 783 781 779 778 777 777 776 776 773 770 768
815 816 815 819 817 805 784 781 781 801 809 777 771 775 778 787 786 780 779 781 779 780 783 783 784 783 781 781 783 782 781 779 776 776 776 774 773 772 771 771 770 768 766 764
814 820 823 818 818 806 782 784 791 786 776 775 776 778 780 780 780 779 779 780 781 780 779 779 780 778 775 775 776 775 775 769 770 771 770 769 767 766 766 766 765 763 761 759
813 811 816 813 809 793 787 783 776 776 776 775 776 776 777 778 778 777 778 778 778 777 775 774 775 773 771 771 771 769 765 764 763 765 764 762 761 761 760 760 759 758 756 754
803 801 805 801 792 789 782 780 779 776 777 773 772 774 775 775 774 774 774 773 774 773 772 775 777 773 772 769 764 762 763 759 758 758 756 755 755 754 753 753 753 752 750 749
805 802 804 800 790 787 786 784 783 783 782 779 776 777 779 779 778 778 775 773 774 776 778 777 775 775 773 772 768 768 766 760 756 755 752 749 746 746 746 745 744 744 743 742
801 802 807 806 797 796 795 787 782 784 788 785 784 787 784 782 782 780 781 779 779 778 782 778 778 774 778 774 770 770 767 761 756 752 747 744 744 739 736 736 736 736 735 735